Weather History for Fort Collins, CO

Change the Weather History Date:

Sunday, October 23, 2011

  Actual Average Record
Temperature  
Mean Temperature 56 °F -  
Max Temperature 73 °F 57 °F 84 °F (2003)
Min Temperature 39 °F 32 °F 24 °F (2002)
Degree Days  
Heating Degree Days 9    
Growing Degree Days 6 (Base 50)    
Moisture  
Dew Point 29 °F    
Average Humidity 42    
Maximum Humidity 70    
Minimum Humidity 17    
Precipitation  
Precipitation 0.00 in - - ()
Sea Level Pressure  
Sea Level Pressure 30.14 in    
Wind  
Wind Speed 5 mph (SSE)    
Max Wind Speed 9 mph    
Max Gust Speed -    
Visibility 10 miles    
Events      
Averages and records for this station are not official NWS values.
T = Trace of Precipitation, MM = Missing Value Source: NWS Daily Summary

Daily Weather History Graph

Daily Weather History Graph

Search for Another Location

Airport:

Trip Planner

Search our weather history database for the weather conditions in past years. The results will help you decide how hot, cold, wet, or windy it might be!

Date:

Astronomy

Oct. 23, 2011 Rise Set
Actual Time 7:19 AM MDT 6:08 PM MDT
Civil Twilight 6:51 AM MDT 6:36 PM MDT
Nautical Twilight 6:19 AM MDT 7:08 PM MDT
Astronomical Twilight 5:48 AM MDT 7:39 PM MDT
Moon 3:28 AM MDT (10/23) 4:01 PM MDT (10/23)
Length of Visible Light 11h 44m
Length of Day
10h 49m
Waning Crescent, 14% of the Moon is Illuminated
Oct 23
Waning Crescent
Oct 26
New
Nov 2
First Quarter
Nov 10
Full
Nov 18
Last Quarter

Hourly Weather History & Observations

Time (MDT) Temp. Windchill Dew Point Humidity Pressure Visibility Wind Dir Wind Speed Gust Speed Precip Events Conditions
12:15 AM 46.4 °F - 28.4 °F 50% 30.13 in 10.0 mi Calm Calm - N/A   Clear
12:35 AM 44.6 °F 42.2 °F 30.2 °F 57% 30.12 in 10.0 mi North 4.6 mph - N/A   Clear
12:55 AM 44.6 °F 42.2 °F 28.4 °F 53% 30.11 in 10.0 mi NNE 4.6 mph - N/A   Clear
1:35 AM 42.8 °F 37.5 °F 32.0 °F 66% 30.11 in 10.0 mi North 9.2 mph - N/A   Clear
1:55 AM 41.0 °F 36.4 °F 32.0 °F 70% 30.11 in 10.0 mi North 6.9 mph - N/A   Clear
2:15 AM 41.0 °F 35.8 °F 30.2 °F 65% 30.11 in 10.0 mi North 8.1 mph - N/A   Clear
2:35 AM 41.0 °F 35.8 °F 30.2 °F 65% 30.12 in 10.0 mi North 8.1 mph - N/A   Clear
3:35 AM 39.2 °F 35.0 °F 30.2 °F 70% 30.13 in 10.0 mi North 5.8 mph - N/A   Clear
3:55 AM 41.0 °F 39.0 °F 30.2 °F 65% 30.13 in 10.0 mi North 3.5 mph - N/A   Clear
4:15 AM 39.2 °F 35.9 °F 30.2 °F 70% 30.13 in 10.0 mi West 4.6 mph - N/A   Clear
4:35 AM 42.8 °F 41.1 °F 30.2 °F 61% 30.14 in 10.0 mi South 3.5 mph - N/A   Clear
4:55 AM 42.8 °F 40.1 °F 30.2 °F 61% 30.14 in 10.0 mi South 4.6 mph - N/A   Clear
5:15 AM 44.6 °F - 33.8 °F 66% 30.14 in 10.0 mi Calm Calm - N/A   Clear
5:55 AM 41.0 °F - 32.0 °F 70% 30.16 in 10.0 mi Calm Calm - N/A   Clear
6:15 AM 41.0 °F 37.1 °F 32.0 °F 70% 30.16 in 10.0 mi SSE 5.8 mph - N/A   Clear
6:35 AM 39.2 °F 35.0 °F 28.4 °F 65% 30.16 in 10.0 mi South 5.8 mph - N/A   Clear
6:55 AM 39.2 °F 35.9 °F 30.2 °F 70% 30.17 in 10.0 mi South 4.6 mph - N/A   Clear
7:15 AM 41.0 °F 39.0 °F 28.4 °F 61% 30.16 in 10.0 mi South 3.5 mph - N/A   Clear
7:35 AM 39.2 °F 35.9 °F 28.4 °F 65% 30.17 in 10.0 mi South 4.6 mph - N/A   Clear
7:55 AM 42.8 °F 41.1 °F 28.4 °F 57% 30.18 in 10.0 mi SSW 3.5 mph - N/A   Clear
8:15 AM 42.8 °F 41.1 °F 30.2 °F 61% 30.18 in 10.0 mi South 3.5 mph - N/A   Clear
8:55 AM 48.2 °F - 33.8 °F 58% 30.19 in 10.0 mi SSW 4.6 mph - N/A   Clear
9:35 AM 53.6 °F - 32.0 °F 44% 30.19 in 10.0 mi SSW 5.8 mph - N/A   Clear
9:55 AM 55.4 °F - 30.2 °F 38% 30.19 in 10.0 mi SSW 6.9 mph - N/A   Clear
10:15 AM 57.2 °F - 30.2 °F 36% 30.19 in 10.0 mi South 6.9 mph - N/A   Clear
10:35 AM 57.2 °F - 30.2 °F 36% 30.19 in 10.0 mi SSE 5.8 mph - N/A   Clear
10:55 AM 60.8 °F - 30.2 °F 31% 30.19 in 10.0 mi SW 4.6 mph - N/A   Clear
11:15 AM 60.8 °F - 30.2 °F 31% 30.19 in 10.0 mi SSW 5.8 mph - N/A   Clear
11:35 AM 62.6 °F - 30.2 °F 30% 30.18 in 10.0 mi South 3.5 mph - N/A   Clear
11:55 AM 64.4 °F - 30.2 °F 28% 30.18 in 10.0 mi South 6.9 mph - N/A   Clear
12:15 PM 64.4 °F - 30.2 °F 28% 30.18 in 10.0 mi SE 3.5 mph - N/A   Clear
12:35 PM 66.2 °F - 30.2 °F 26% 30.17 in 10.0 mi ESE 8.1 mph - N/A   Clear
1:15 PM 69.8 °F - 28.4 °F 21% 30.14 in 10.0 mi ESE 6.9 mph - N/A   Clear
1:35 PM 71.6 °F - 28.4 °F 20% 30.13 in 10.0 mi ESE 9.2 mph - N/A   Clear
1:55 PM 71.6 °F - 26.6 °F 19% 30.13 in 10.0 mi SSE 9.2 mph - N/A   Clear
2:15 PM 69.8 °F - 26.6 °F 20% 30.12 in 10.0 mi South 6.9 mph - N/A   Clear
2:35 PM 71.6 °F - 26.6 °F 19% 30.11 in 10.0 mi SSE 9.2 mph - N/A   Clear
2:55 PM 71.6 °F - 26.6 °F 19% 30.11 in 10.0 mi SE 4.6 mph - N/A   Clear
3:15 PM 73.4 °F - 26.6 °F 18% 30.10 in 10.0 mi SE 8.1 mph - N/A   Clear
3:35 PM 73.4 °F - 26.6 °F 18% 30.10 in 10.0 mi SSE 9.2 mph - N/A   Clear
3:55 PM 73.4 °F - 26.6 °F 18% 30.10 in 10.0 mi SE 4.6 mph - N/A   Clear
4:15 PM 71.6 °F - 26.6 °F 19% 30.10 in 10.0 mi South 4.6 mph - N/A   Clear
4:35 PM 71.6 °F - 24.8 °F 17% 30.09 in 10.0 mi SSE 6.9 mph - N/A   Clear
5:15 PM 71.6 °F - 24.8 °F 17% 30.10 in 10.0 mi South 6.9 mph - N/A   Clear
5:55 PM 68.0 °F - 24.8 °F 20% 30.10 in 10.0 mi SE 4.6 mph - N/A   Clear
6:15 PM 66.2 °F - 24.8 °F 21% 30.11 in 10.0 mi SE 3.5 mph - N/A   Clear
6:35 PM 62.6 °F - 24.8 °F 24% 30.12 in 10.0 mi SE 4.6 mph - N/A   Clear
6:55 PM 59.0 °F - 23.0 °F 25% 30.12 in 10.0 mi ESE 3.5 mph - N/A   Clear
7:15 PM 60.8 °F - 24.8 °F 25% 30.13 in 10.0 mi South 3.5 mph - N/A   Clear
7:35 PM 60.8 °F - 24.8 °F 25% 30.13 in 10.0 mi SSW 4.6 mph - N/A   Clear
7:55 PM 55.4 °F - 26.6 °F 33% 30.13 in 10.0 mi NNE 3.5 mph - N/A   Clear
8:15 PM 60.8 °F - 28.4 °F 29% 30.13 in 10.0 mi Calm Calm - N/A   Clear
8:35 PM 55.4 °F - 28.4 °F 36% 30.14 in 10.0 mi WSW 4.6 mph - N/A   Clear
8:55 PM 51.8 °F - 37.4 °F 58% 30.14 in 10.0 mi South 4.6 mph - N/A   Clear
9:15 PM 53.6 °F - 33.8 °F 47% 30.14 in 10.0 mi Calm Calm - N/A   Clear
9:35 PM 51.8 °F - 30.2 °F 44% 30.14 in 10.0 mi NNE 5.8 mph - N/A   Clear
9:55 PM 53.6 °F - 30.2 °F 41% 30.14 in 10.0 mi NE 4.6 mph - N/A   Clear
10:15 PM 51.8 °F - 28.4 °F 41% 30.14 in 10.0 mi NE 5.8 mph - N/A   Clear
10:35 PM 51.8 °F - 28.4 °F 41% 30.13 in 10.0 mi NNE 5.8 mph - N/A   Clear
10:55 PM 46.4 °F - 26.6 °F 46% 30.14 in 10.0 mi Calm Calm - N/A   Clear
11:35 PM 48.2 °F - 28.4 °F 46% 30.13 in 10.0 mi Calm Calm - N/A   Clear
11:55 PM 46.4 °F 45.2 °F 30.2 °F 53% 30.13 in 10.0 mi NW 3.5 mph - N/A   Clear